Weather in Istoshino

Russia / Tyumen Oblast     55°57′25″N   68°14′15″E
temp.,
°C
wind,
m/s
gust,
m/s
humid.,
%
clouds,
%
prec.,
mm/h
press.,
hPa
HPBL,
m
19 april, mon
mon1923:00−5n710491 0.0 10281074
02:00−6n68505 0.0 10301067
05:00−7n58505 0.0 10321072
08:00−6nne67415 0.0 10331267
11:00−3n5734100 0.0 10331781
14:00−1n5730100 0.0 10322246
17:00−1n5632100 0.0 10322069
20:00−3nne34465 0.0 103388
20 april, tue
tue2023:00−4ne23505 0.0 103365
02:00−4ene22520 0.0 103449
05:00−5wnw11515 0.0 103411
08:00−2wnw34365 0.0 1033906
11:00+1wnw45295 0.0 10321315
14:00+4w56305 0.0 10291595
17:00+5wnw69355 0.0 10271727
20:00+2w4105318 0.0 1027183
21 april, wed
wed2123:00+1w4106540 0.0 1026177
02:00+1wnw5126688 0.0 1025236
05:000nw49779 0.0 1026182
08:00+4n587363 0.0 1028495
11:00+6n685776 0.0 10291329
14:00+8n674110 0.0 10301732
17:00+8nne56365 0.0 10311661
20:00+5ne34545 0.0 103347
22 april, thu
thu2223:00+3e34630 0.0 103568
02:00+1se34710 0.0 103777
05:000se34770 0.0 103979
08:00+3se45610 0.0 1040400
11:00+7sse44475 0.0 10401000
14:00+9sse33380 0.0 10401341
17:00+10s33360 0.0 10391442
20:00+7sse36510 0.0 1040109
23 april, fri
fri2323:00+4sse49600 0.0 1040198
02:00+3sse410620 0.0 1040188
05:00+1sse49650 0.0 1041152
08:00+5sse57510 0.0 1041320
11:00+10sse55390 0.0 1040960
14:00+12sse55363 0.0 10381558
17:00+13s45365 0.0 10371833
20:00+9se48515 0.0 1037166